Location: Newark
(43.6486°N, 79.3853°W)
Time: 18:43:43
(UTC+00:00)

STARLINK-1305 - Pass Details

Date: 08 April 2020
Orbit: 549 x 550 km, 53.0° (Epoch: 02 June)

Event Time Altitude Azimuth Distance (km) Brightness Sun altitude
Exits shadow 09:00:03 - 312° (NW) 1,958 6.3 -18.7°
Reaches altitude 10° 09:00:28 10° 315° (NW) 1,824 6.1 -18.6°
Maximum altitude 09:03:56 25° 12° (NNE) 1,124 5.6 -18.1°
Drops below altitude 10° 09:07:24 10° 69° (ENE) 1,821 7.5 -17.5°
Sets 09:09:56 0° 83° (E) 2,713 8.5 -17.1°
